Temperature
19 19 19 19 19 19 19 19 18 18 18 18 18 18 18 18 18 18 18 18 18 18 18 18 18 18 18 18 18 18 17 17 17 17 17 17 16 16 16 16 16 16 16
19 19 19 19 19 19 19 18 18 18 18 18 18 18 18 18 18 19 19 18 18 18 18 18 18 18 18 18 18 17 17 17 17 17 17 17 16 16 16 16 16 16 16
19 19 19 19 19 18 18 18 18 18 18 18 18 18 18 19 19 19 18 18 18 18 18 18 18 18 18 18 18 17 17 17 17 17 17 17 16 16 16 16 16 16 16
19 19 19 18 18 18 18 18 18 18 18 18 18 18 18 18 19 19 18 18 18 18 18 18 18 18 18 18 18 17 17 17 17 17 16 16 16 16 16 16 16 16 16
19 19 18 18 18 18 18 18 18 18 18 18 18 18 18 18 19 18 18 18 18 18 18 18 18 18 18 18 18 17 17 17 17 17 17 16 16 16 16 16 16 16 16
19 19 19 19 18 18 18 18 18 18 18 18 18 18 18 18 18 18 18 18 18 18 18 18 18 18 18 18 18 17 17 17 17 17 17 16 16 16 16 16 16 16 16
19 19 19 19 18 18 18 18 18 18 18 18 18 18 18 18 18 18 18 18 18 18 18 18 18 18 18 17 17 17 17 17 17 17 17 16 16 16 16 16 16 16 16
19 19 19 18 18 18 18 18 18 18 18 18 18 18 18 18 18 18 18 18 18 18 18 18 18 18 18 17 17 17 17 17 17 17 17 16 16 16 16 16 16 16 15
19 19 19 18 18 18 18 18 18 18 18 18 18 18 18 18 18 18 18 18 18 18 18 18 18 18 17 17 17 17 17 17 17 17 16 16 16 16 16 16 16 16 15
18 18 18 18 18 18 18 18 18 18 18 18 18 18 18 18 18 17 18 18 18 18 18 18 17 17 17 17 17 17 17 17 16 16 16 16 16 16 16 16 15 16 15
18 18 18 18 18 18 18 18 18 18 18 18 18 18 18 18 18 18 17 17 17 17 17 17 17 17 17 17 17 17 17 16 16 16 16 16 16 15 15 15 15 15 15
18 18 18 18 18 18 18 18 18 18 18 18 18 18 18 18 18 18 18 17 17 17 17 17 17 17 17 17 17 17 16 16 16 16 16 16 16 15 15 15 15 15 15
18 18 18 18 18 18 18 18 18 18 18 18 18 18 18 18 18 18 18 17 17 17 16 17 17 16 16 16 16 16 16 16 16 16 15 15 15 15 15 15 15 15 14
18 18 18 18 18 18 17 17 18 18 18 18 17 17 17 18 18 18 18 17 17 16 16 16 16 16 16 16 16 16 16 16 16 15 15 15 15 15 15 15 14 14 14
18 18 17 17 17 17 17 17 17 17 17 17 17 17 17 17 17 17 17 17 17 16 16 16 16 16 16 16 16 16 16 15 15 15 15 15 15 15 15 15 14 14 14
17 17 17 17 17 17 17 17 17 17 17 17 17 17 17 17 17 17 17 17 17 17 16 16 16 16 16 16 16 15 15 15 15 15 15 14 14 14 14 14 14 14 14
17 17 17 17 17 17 17 16 16 16 16 16 16 16 17 16 16 16 16 16 16 16 16 16 16 15 15 15 15 15 15 15 15 15 15 14 14 14 14 14 14 14 14
17 17 17 17 17 16 16 16 16 16 16 16 16 16 16 16 16 16 16 16 16 16 15 15 15 15 15 15 15 15 15 15 15 15 14 14 14 14 14 14 14 13 13
17 17 17 16 16 16 16 16 16 16 16 16 16 15 15 15 16 16 16 15 15 15 15 15 15 15 15 15 15 15 15 14 14 14 14 14 14 14 14 14 13 13 13
16 16 16 16 16 16 16 15 15 15 15 15 15 15 15 15 15 15 15 15 15 15 15 15 15 15 14 15 15 15 15 14 14 14 14 14 14 13 13 13 13 13 13
16 16 16 16 16 15 15 15 15 15 15 15 15 15 15 15 15 15 14 14 14 14 14 14 14 14 14 14 14 14 14 14 14 14 14 14 13 13 13 13 13 13 12
16 16 16 16 15 15 15 15 15 15 15 14 14 14 14 14 14 14 14 14 14 14 14 14 14 14 14 14 14 14 14 13 14 14 13 13 13 13 13 13 12 12 12
15 15 15 15 15 15 15 14 14 14 14 14 14 14 14 14 14 14 14 14 13 13 13 13 13 13 13 14 13 13 13 13 13 13 13 13 13 13 13 12 12 12 12
15 15 15 15 15 15 14 14 14 14 14 13 13 13 13 13 13 13 13 13 13 13 13 13 13 13 13 13 13 13 13 13 13 13 13 13 13 13 12 12 12 12 12
15 14 14 14 14 14 14 14 14 14 13 13 13 13 13 13 13 13 13 13 13 13 13 13 13 13 13 13 13 13 12 12 12 12 12 12 12 12 12 12 12 12 11
14 14 14 14 14 14 14 14 14 13 13 13 13 13 13 12 12 12 12 12 12 13 13 13 13 13 13 13 12 12 12 12 12 12 12 12 12 12 12 12 12 12 11
Wind_Speed
3 3 3 3 3 4 4 4 4 4 4 5 5 6 5 5 5 6 7 10 10 10 11 10 10 10 9 9 9 9 9 9 8 8 8 8 8 8 8 9 9 10 10
4 4 3 3 3 3 4 4 4 4 3 4 4 4 4 5 5 6 6 8 9 10 11 10 10 9 8 8 7 7 8 8 8 7 7 7 8 7 7 7 8 9 9
4 4 3 3 3 4 5 4 4 4 4 4 3 3 3 3 4 5 6 7 7 9 10 10 9 9 8 8 7 7 7 7 7 7 7 7 7 7 7 7 8 8 8
4 4 3 3 3 4 4 3 3 3 3 2 2 1 1 2 3 4 5 5 6 6 8 9 9 9 9 8 7 7 7 7 7 7 7 7 7 8 7 8 8 8 8
5 4 3 3 3 3 3 3 3 3 3 2 2 1 1 1 2 3 4 5 5 5 6 8 9 9 8 8 7 7 7 7 7 7 7 7 7 8 8 8 8 8 8
5 4 4 3 3 3 3 3 3 2 2 2 2 1 1 1 2 2 3 4 4 6 6 5 5 6 8 8 8 7 7 7 7 7 7 7 8 8 8 8 8 8 8
4 4 4 3 3 2 2 2 2 2 1 1 2 2 2 1 1 2 2 2 3 5 6 6 5 5 4 7 8 8 7 7 7 7 7 7 8 8 9 9 9 9 9
3 3 3 3 2 2 2 1 2 2 0 1 2 2 2 3 2 1 1 2 2 2 3 5 6 5 4 4 6 7 7 7 6 6 5 5 6 7 8 9 9 9 10
3 3 3 2 2 2 1 1 2 3 1 1 1 3 2 2 1 2 0 1 2 2 2 3 5 5 6 4 4 6 7 7 7 6 6 5 5 6 6 8 10 10 10
2 3 3 2 2 2 1 1 1 2 2 1 1 1 2 3 2 1 2 1 1 2 2 2 3 4 5 5 5 5 6 7 7 7 6 6 6 6 6 6 8 9 9
2 2 2 2 2 1 1 1 1 1 1 1 1 0 0 1 1 2 1 1 1 1 0 1 2 3 4 4 4 4 6 7 7 7 6 5 5 5 5 5 5 6 7
1 2 2 1 1 1 1 1 1 1 1 1 0 1 1 1 1 2 2 1 1 1 0 0 1 2 3 3 4 5 7 7 6 6 6 5 4 4 4 3 4 4 5
1 1 1 1 1 0 1 1 1 1 1 1 0 0 0 1 2 2 3 2 1 1 0 1 0 2 3 3 3 4 6 7 6 5 5 4 3 3 2 3 3 3 3
1 0 1 1 1 1 1 1 1 0 1 1 1 0 1 1 1 2 3 3 2 1 1 2 1 0 1 3 4 4 3 5 5 5 4 4 3 2 2 1 1 2 2
1 1 1 1 1 1 1 1 1 1 1 1 1 1 1 1 1 1 2 3 4 3 2 2 1 1 1 2 4 3 3 3 4 4 4 3 3 2 2 1 1 1 1
2 2 1 1 1 1 1 2 1 1 1 1 0 1 1 1 1 1 1 1 2 4 3 2 2 2 2 1 3 3 3 3 4 4 4 4 3 3 2 2 1 1 1
2 2 2 2 2 2 2 1 1 1 1 1 1 1 1 1 2 1 1 2 2 3 3 1 1 0 1 1 1 2 2 2 3 5 5 4 4 3 3 2 2 2 2
2 2 2 2 1 1 1 1 1 1 1 0 1 1 1 1 2 2 1 2 1 2 3 2 1 0 1 2 1 1 1 2 3 4 6 5 5 4 4 3 3 3 2
1 1 1 1 0 0 1 1 0 1 1 1 0 0 0 1 2 2 2 2 1 1 2 2 1 1 1 1 0 1 1 1 2 3 4 5 5 5 4 4 4 4 3
1 1 0 0 1 0 0 0 1 0 0 1 1 0 0 1 1 1 1 1 1 1 1 1 1 1 1 1 0 1 1 2 2 1 2 3 4 5 5 5 5 4 4
1 0 0 1 1 1 1 0 0 1 1 1 1 1 0 0 0 1 1 1 1 1 1 1 1 0 1 1 2 2 2 2 2 1 1 1 1 2 4 6 6 5 5
0 0 0 1 2 2 1 1 1 1 1 1 1 2 1 1 1 1 0 1 3 3 3 2 2 2 3 3 2 2 1 0 2 2 2 2 2 3 4 6 7 7 7
0 0 1 1 2 2 2 2 2 1 1 2 2 2 2 2 1 1 1 2 1 3 4 5 4 4 4 4 3 2 2 3 3 3 2 2 2 3 3 6 9 9 8
1 1 1 1 1 2 2 2 2 1 1 2 2 3 2 3 3 1 1 2 2 3 3 3 5 6 5 5 5 4 5 3 2 2 3 2 2 3 3 4 8 10 9
2 2 2 2 1 3 3 2 1 1 1 2 2 2 2 2 2 1 1 2 3 4 4 4 5 6 7 6 4 2 1 1 2 2 2 2 2 1 1 3 6 10 10
2 2 2 2 2 3 2 2 1 1 1 2 2 2 3 2 2 1 1 2 3 5 4 3 3 4 4 5 6 5 5 4 2 3 3 3 2 1 1 2 2 4 6
Wind_Direction
94 82 80 86 89 104 109 104 97 93 88 93 108 116 123 137 142 144 153 162 167 169 170 173 174 172 176 184 188 192 194 190 188 191 194 197 189 185 192 196 197 199 200
97 93 88 88 95 112 116 114 112 106 100 96 102 114 128 142 148 151 156 162 168 172 174 177 178 176 177 180 184 191 194 193 193 192 193 192 188 190 193 197 200 204 205
103 103 92 88 97 106 101 100 95 90 93 90 95 112 127 136 146 153 156 157 169 178 181 183 184 183 181 180 180 188 188 186 187 188 193 196 197 202 204 208 209 209 208
102 97 95 88 95 97 96 99 99 94 92 101 111 129 123 128 144 160 160 162 170 179 185 190 188 185 182 178 177 185 188 192 193 195 199 202 204 207 208 213 214 214 214
102 99 95 94 95 88 89 106 96 105 113 122 142 145 151 167 182 169 166 173 176 177 185 192 191 186 184 184 185 187 190 197 204 209 210 209 210 214 213 215 216 217 218
99 100 94 88 95 92 83 92 101 93 122 149 142 113 223 215 195 184 185 172 178 185 190 187 186 192 196 195 194 194 195 202 208 211 215 218 218 219 217 217 220 221 221
98 100 102 96 92 99 110 119 114 101 111 118 87 28 354 312 212 199 180 171 191 191 179 178 178 180 192 207 204 199 201 205 206 212 218 220 221 222 220 220 221 224 226
104 109 106 112 108 101 80 84 119 121 149 141 134 103 17 350 337 238 175 185 189 159 158 176 171 172 177 194 200 198 199 203 203 208 213 217 218 222 225 225 223 226 228
95 107 113 114 119 126 136 151 152 146 172 263 163 147 153 215 300 337 335 151 161 153 170 161 168 175 176 179 192 204 205 207 213 216 217 217 214 217 227 232 227 224 227
77 99 109 112 111 107 119 134 133 144 147 205 298 210 185 164 160 280 338 357 133 156 183 181 170 184 182 180 192 201 215 216 214 219 220 220 217 218 227 235 233 230 226
55 79 109 104 100 92 108 85 86 113 136 163 207 230 103 98 133 155 221 304 353 338 210 183 170 180 189 188 192 208 220 220 217 221 225 225 223 228 233 238 237 230 227
30 37 78 87 96 96 128 141 139 119 112 115 120 133 154 159 182 161 179 202 208 300 7 95 163 193 178 184 201 219 223 217 217 224 226 224 225 232 229 233 236 239 238
31 3 47 63 56 122 104 84 84 64 60 84 99 129 168 201 183 162 152 165 182 263 11 355 283 201 179 173 196 214 215 208 206 210 215 207 203 213 221 228 225 228 237
180 238 77 84 68 60 63 73 61 17 55 89 63 62 44 339 145 159 160 153 141 353 352 281 326 224 162 177 197 198 199 196 194 195 196 188 178 174 178 195 207 209 212
132 78 62 86 62 40 47 76 81 28 35 38 32 45 47 352 26 120 147 154 156 171 230 253 253 277 211 187 198 176 176 188 187 185 184 174 168 167 166 152 146 164 180
105 97 66 60 44 32 45 64 63 22 33 352 25 44 24 356 21 65 109 117 137 157 188 228 217 224 223 199 187 168 181 188 197 187 180 177 167 161 158 141 131 146 136
101 106 103 71 39 24 24 39 350 18 45 348 4 37 11 17 39 31 71 94 100 126 152 246 253 227 164 192 163 162 179 187 217 204 195 193 189 185 172 161 156 151 146
111 115 100 85 64 33 24 33 359 24 51 2 343 23 356 27 37 33 78 92 104 128 147 176 272 262 244 231 219 204 197 204 217 215 207 202 191 186 180 168 158 146 137
101 94 101 106 121 63 14 341 76 58 29 348 341 65 338 44 33 43 69 93 99 91 108 140 220 254 286 254 304 292 277 258 227 207 194 192 189 182 174 167 163 152 145
120 98 114 197 236 233 34 34 64 86 10 348 354 33 229 126 143 115 76 113 116 92 93 118 182 268 286 276 170 261 303 295 266 224 196 196 202 202 195 184 180 177 175
158 154 118 324 305 262 248 150 218 244 246 300 341 322 272 113 153 176 159 179 154 153 162 186 240 291 286 279 243 239 250 283 286 219 178 219 194 214 217 208 201 201 198
8 95 121 298 301 293 284 260 201 222 213 202 262 296 294 295 348 8 3 193 187 189 200 203 225 232 243 238 238 243 206 110 279 251 168 236 185 223 234 221 218 212 205
172 125 260 286 289 301 312 301 291 218 202 207 223 253 282 287 301 278 301 310 265 220 203 195 210 231 228 225 209 232 224 205 230 228 158 216 213 230 238 227 216 212 211
200 220 246 271 293 315 326 309 311 258 210 219 229 226 235 268 267 229 250 297 286 261 232 212 210 226 226 219 207 212 221 228 267 249 160 193 218 227 234 223 215 211 217
217 232 233 239 268 299 322 319 322 279 243 262 259 245 213 226 265 254 218 269 294 291 276 245 232 237 237 228 205 177 181 171 262 259 207 179 212 226 236 237 224 213 217
221 238 252 246 238 264 294 297 257 219 255 282 285 265 238 235 263 267 208 221 260 272 276 280 284 285 261 243 224 199 189 192 211 247 226 180 189 156 263 265 226 221 221
Height
1507 1507 1506 1506 1507 1507 1507 1508 1509 1510 1511 1512 1513 1514 1516 1517 1519 1520 1521 1522 1523 1524 1525 1525 1526 1526 1526 1526 1526 1526 1527 1528 1528 1529 1529 1529 1529 1530 1530 1531 1532 1533 1534
1509 1509 1509 1509 1509 1509 1510 1510 1511 1512 1513 1514 1515 1516 1517 1519 1520 1520 1521 1522 1523 1524 1525 1525 1525 1526 1526 1526 1526 1526 1526 1527 1527 1528 1528 1528 1529 1529 1530 1530 1531 1532 1533
1511 1511 1511 1511 1511 1511 1512 1513 1513 1514 1515 1516 1516 1517 1518 1519 1520 1521 1522 1522 1523 1524 1525 1525 1525 1525 1526 1526 1526 1526 1526 1526 1526 1527 1527 1527 1528 1528 1529 1529 1530 1530 1531
1513 1513 1513 1513 1514 1513 1514 1514 1515 1515 1516 1517 1518 1519 1519 1520 1521 1522 1522 1523 1523 1524 1525 1525 1525 1525 1526 1526 1525 1525 1525 1526 1526 1526 1526 1526 1527 1527 1527 1528 1528 1529 1530
1515 1515 1515 1515 1515 1516 1516 1516 1517 1517 1518 1519 1519 1520 1521 1521 1522 1522 1523 1523 1524 1524 1524 1524 1525 1525 1525 1525 1525 1525 1525 1525 1525 1525 1525 1525 1525 1526 1526 1526 1527 1528 1528
1517 1517 1517 1517 1517 1517 1518 1518 1518 1519 1519 1520 1520 1520 1521 1521 1522 1522 1523 1523 1523 1524 1524 1524 1524 1525 1525 1525 1524 1524 1524 1524 1524 1524 1524 1524 1524 1524 1524 1525 1525 1526 1526
1518 1518 1518 1518 1518 1518 1519 1519 1519 1519 1520 1520 1521 1521 1521 1521 1522 1522 1523 1523 1523 1523 1523 1523 1524 1524 1524 1524 1524 1524 1523 1523 1523 1523 1522 1522 1522 1522 1522 1522 1523 1523 1524
1519 1519 1519 1519 1519 1519 1519 1519 1519 1519 1520 1521 1520 1520 1521 1522 1521 1522 1522 1522 1523 1523 1523 1523 1523 1523 1523 1523 1523 1523 1522 1522 1521 1521 1521 1520 1520 1520 1520 1520 1520 1520 1521
1519 1519 1519 1519 1519 1519 1519 1519 1519 1520 1520 1520 1520 1521 1521 1520 1521 1521 1521 1521 1522 1522 1522 1522 1522 1522 1522 1521 1521 1521 1521 1520 1520 1519 1519 1518 1517 1517 1517 1517 1517 1517 1518
1520 1520 1520 1519 1519 1519 1519 1519 1519 1519 1519 1519 1519 1520 1520 1520 1520 1520 1520 1521 1521 1521 1521 1521 1521 1521 1521 1521 1520 1520 1520 1519 1518 1518 1517 1516 1515 1515 1515 1515 1515 1515 1515
1520 1520 1520 1519 1519 1519 1518 1518 1518 1518 1518 1518 1518 1518 1518 1519 1518 1518 1518 1519 1520 1520 1520 1520 1520 1520 1520 1519 1519 1519 1518 1518 1517 1516 1515 1514 1514 1513 1513 1512 1512 1512 1512
1519 1519 1519 1519 1518 1518 1517 1517 1517 1517 1517 1517 1517 1517 1517 1517 1517 1517 1516 1517 1518 1519 1519 1518 1518 1518 1518 1518 1518 1517 1517 1517 1516 1515 1514 1512 1512 1511 1510 1510 1510 1510 1510
1518 1518 1518 1517 1517 1516 1516 1516 1516 1515 1515 1515 1515 1515 1515 1515 1515 1515 1515 1516 1516 1517 1517 1517 1517 1517 1517 1517 1516 1516 1516 1515 1514 1513 1512 1511 1510 1509 1509 1508 1508 1508 1508
1517 1517 1517 1516 1515 1514 1514 1514 1514 1514 1514 1513 1513 1513 1513 1513 1513 1513 1514 1514 1514 1515 1515 1516 1516 1516 1516 1516 1515 1515 1514 1514 1513 1512 1511 1510 1509 1508 1507 1507 1506 1506 1506
1517 1516 1516 1515 1514 1514 1513 1513 1512 1512 1512 1512 1511 1511 1511 1511 1511 1511 1512 1512 1513 1513 1513 1514 1514 1514 1514 1514 1514 1513 1512 1512 1512 1511 1510 1509 1508 1507 1506 1505 1505 1504 1504
1516 1515 1515 1514 1513 1512 1512 1512 1511 1510 1510 1510 1510 1509 1509 1509 1509 1509 1509 1510 1510 1511 1511 1512 1512 1513 1513 1513 1512 1512 1511 1510 1510 1509 1509 1508 1507 1506 1505 1504 1504 1503 1503
1515 1515 1514 1513 1512 1511 1511 1510 1510 1509 1508 1508 1508 1508 1507 1507 1507 1507 1507 1508 1508 1509 1509 1509 1510 1511 1511 1510 1510 1510 1509 1509 1508 1508 1507 1506 1506 1505 1504 1503 1502 1502 1501
1514 1514 1513 1512 1511 1510 1509 1509 1508 1508 1507 1507 1506 1506 1505 1505 1505 1505 1505 1506 1506 1506 1507 1507 1508 1508 1508 1508 1508 1508 1507 1507 1507 1506 1506 1505 1504 1503 1503 1502 1501 1501 1500
1513 1512 1511 1510 1510 1509 1508 1507 1507 1506 1505 1505 1505 1504 1504 1504 1503 1503 1504 1504 1504 1505 1505 1505 1505 1506 1506 1506 1506 1506 1505 1505 1505 1504 1504 1503 1503 1502 1501 1501 1500 1499 1498
1511 1510 1510 1509 1508 1507 1506 1506 1505 1504 1503 1503 1503 1502 1502 1502 1502 1502 1502 1502 1502 1502 1503 1503 1503 1503 1504 1504 1504 1503 1503 1503 1503 1502 1502 1501 1501 1501 1500 1499 1498 1498 1497
1509 1508 1508 1507 1506 1505 1504 1504 1503 1502 1501 1501 1501 1500 1500 1500 1500 1500 1500 1500 1500 1500 1501 1501 1501 1501 1501 1501 1501 1500 1500 1500 1500 1500 1500 1499 1499 1498 1498 1498 1497 1497 1496
1507 1507 1506 1505 1504 1503 1502 1502 1501 1500 1499 1499 1498 1498 1498 1498 1498 1498 1498 1498 1498 1498 1498 1498 1498 1498 1498 1498 1498 1498 1497 1497 1497 1498 1497 1497 1496 1496 1496 1496 1496 1495 1495
1505 1505 1504 1503 1501 1501 1500 1499 1498 1498 1497 1496 1496 1495 1495 1495 1495 1495 1495 1495 1496 1496 1496 1496 1495 1495 1495 1495 1495 1495 1495 1494 1494 1494 1494 1493 1494 1493 1494 1494 1494 1493 1493
1503 1502 1501 1500 1499 1498 1498 1497 1496 1495 1494 1494 1493 1493 1492 1492 1492 1492 1492 1492 1492 1492 1492 1492 1492 1492 1492 1492 1492 1492 1491 1491 1491 1491 1491 1490 1490 1490 1491 1491 1491 1491 1491
1500 1500 1499 1498 1497 1496 1495 1494 1494 1492 1492 1491 1491 1490 1490 1489 1489 1489 1489 1488 1488 1488 1488 1488 1488 1489 1489 1489 1489 1488 1488 1488 1487 1487 1487 1487 1487 1487 1487 1487 1488 1488 1488
1497 1497 1496 1495 1494 1493 1493 1492 1491 1490 1489 1488 1488 1487 1487 1487 1486 1486 1486 1485 1484 1484 1484 1484 1484 1484 1484 1484 1484 1484 1484 1484 1484 1484 1484 1484 1484 1484 1484 1484 1484 1485 1485